TSC42 CYUL-CYQM

Flight info

Callsign TSC42
Flight time 1h 9m
Altitude 39000
Route SUXET DCT NOVUN DCT ESRAM DCT RABIK Q951 PUXOP
Aircraft A321/M-SDE3FGHIRWY/LB1

Departure

Time 2026-04-24 10:43
Airport Montreal / Pierre Elliott Trudeau International Airport (CYUL)

Arrival

Time 2026-04-24 11:53
Airport Greater Moncton Roméo LeBlanc International Airport (CYQM)
Time Latitude Longitude Altitude Speed Heading
2026-04-24 10:20 45.46075 -73.74921 108 ft 0 kts 179°
2026-04-24 10:33 45.46077 -73.74921 109 ft 2 kts 179°
2026-04-24 10:33 45.46094 -73.74921 108 ft 2 kts 179°
2026-04-24 10:34 45.46110 -73.74921 109 ft 2 kts 179°
2026-04-24 10:34 45.46126 -73.74922 109 ft 2 kts 179°
2026-04-24 10:34 45.46142 -73.74925 109 ft 2 kts 147°
2026-04-24 10:34 45.46154 -73.74941 108 ft 2 kts 108°
2026-04-24 10:35 45.46157 -73.74955 108 ft 0 kts 85°
2026-04-24 10:36 45.46157 -73.74939 108 ft 9 kts 88°
2026-04-24 10:37 45.46157 -73.74793 112 ft 15 kts 90°
2026-04-24 10:37 45.46159 -73.74641 110 ft 17 kts 94°
2026-04-24 10:37 45.46125 -73.74479 109 ft 18 kts 91°
2026-04-24 10:37 45.46129 -73.74319 109 ft 16 kts 86°
2026-04-24 10:38 45.46137 -73.74150 108 ft 18 kts 86°
2026-04-24 10:38 45.46192 -73.73985 105 ft 19 kts 41°
2026-04-24 10:38 45.46291 -73.73856 108 ft 20 kts 42°
2026-04-24 10:38 45.46394 -73.73723 110 ft 20 kts 43°
2026-04-24 10:39 45.46493 -73.73596 112 ft 19 kts 40°
2026-04-24 10:39 45.46600 -73.73465 114 ft 21 kts 44°
2026-04-24 10:39 45.46708 -73.73316 112 ft 23 kts 43°
2026-04-24 10:39 45.46816 -73.73171 113 ft 21 kts 43°
2026-04-24 10:40 45.46924 -73.73031 113 ft 21 kts 42°
2026-04-24 10:40 45.47028 -73.72894 119 ft 20 kts 43°
2026-04-24 10:40 45.47135 -73.72752 118 ft 21 kts 43°
2026-04-24 10:40 45.47248 -73.72604 116 ft 23 kts 42°
2026-04-24 10:41 45.47372 -73.72443 119 ft 25 kts 42°
2026-04-24 10:41 45.47492 -73.72285 119 ft 21 kts 43°
2026-04-24 10:41 45.47596 -73.72145 122 ft 21 kts 43°
2026-04-24 10:41 45.47702 -73.72009 124 ft 20 kts 43°
2026-04-24 10:42 45.47799 -73.71878 126 ft 17 kts 46°
2026-04-24 10:42 45.47771 -73.71740 123 ft 17 kts 133°
2026-04-24 10:42 45.47693 -73.71648 126 ft 11 kts 175°
2026-04-24 10:42 45.47635 -73.71694 124 ft 7 kts 223°
2026-04-24 10:43 45.47618 -73.71716 122 ft 20 kts 222°
2026-04-24 10:43 45.47245 -73.72205 117 ft 120 kts 223°
2026-04-24 10:43 45.46465 -73.73212 309 ft 170 kts 221°
2026-04-24 10:43 45.45527 -73.74423 820 ft 196 kts 221°
2026-04-24 10:44 45.44446 -73.75799 1419 ft 218 kts 221°
2026-04-24 10:44 45.43274 -73.77242 2312 ft 223 kts 223°
2026-04-24 10:44 45.42093 -73.78656 3558 ft 219 kts 223°
2026-04-24 10:44 45.40896 -73.80037 4483 ft 223 kts 223°
2026-04-24 10:45 45.39643 -73.81361 5000 ft 225 kts 213°
2026-04-24 10:45 45.38149 -73.81988 5496 ft 236 kts 183°
2026-04-24 10:45 45.36546 -73.81473 6599 ft 241 kts 152°
2026-04-24 10:45 45.35269 -73.79836 7298 ft 261 kts 116°
2026-04-24 10:46 45.34611 -73.77341 7919 ft 282 kts 102°
2026-04-24 10:46 45.34013 -73.74590 8749 ft 298 kts 102°
2026-04-24 10:46 45.33382 -73.71740 9770 ft 307 kts 102°
2026-04-24 10:46 45.32717 -73.68784 10512 ft 325 kts 102°
2026-04-24 10:47 45.31996 -73.65618 11084 ft 345 kts 103°
2026-04-24 10:47 45.31234 -73.62334 11941 ft 355 kts 103°
2026-04-24 10:47 45.30446 -73.58973 12860 ft 362 kts 103°
2026-04-24 10:47 45.29643 -73.55547 13794 ft 370 kts 103°
2026-04-24 10:48 45.28824 -73.52045 14585 ft 378 kts 102°
2026-04-24 10:48 45.27985 -73.48456 15334 ft 387 kts 101°
2026-04-24 10:48 45.27129 -73.44786 16089 ft 396 kts 101°
2026-04-24 10:48 45.26254 -73.41033 16841 ft 405 kts 100°
2026-04-24 10:49 45.25356 -73.37200 17593 ft 414 kts 99°
2026-04-24 10:49 45.24435 -73.33286 18338 ft 422 kts 99°
2026-04-24 10:49 45.23495 -73.29300 19001 ft 429 kts 99°
2026-04-24 10:49 45.22540 -73.25263 19699 ft 434 kts 99°
2026-04-24 10:50 45.21574 -73.21178 20392 ft 439 kts 98°
2026-04-24 10:50 45.20836 -73.17016 21058 ft 432 kts 88°
2026-04-24 10:50 45.20583 -73.12832 21746 ft 421 kts 76°
2026-04-24 10:50 45.20689 -73.08703 22412 ft 420 kts 73°
2026-04-24 10:51 45.20824 -73.04545 23053 ft 423 kts 72°
2026-04-24 10:51 45.21236 -73.00494 23642 ft 409 kts 61°
2026-04-24 10:51 45.22092 -72.96736 24148 ft 393 kts 51°
2026-04-24 10:51 45.23317 -72.93359 24677 ft 382 kts 44°
2026-04-24 10:52 45.24636 -72.90076 25205 ft 384 kts 44°
2026-04-24 10:52 45.25965 -72.86771 25782 ft 387 kts 44°
2026-04-24 10:52 45.27299 -72.83444 26344 ft 390 kts 44°
2026-04-24 10:52 45.28537 -72.79943 26879 ft 409 kts 53°
2026-04-24 10:53 45.29299 -72.75917 27417 ft 438 kts 66°
2026-04-24 10:53 45.29536 -72.71569 27946 ft 452 kts 72°
2026-04-24 10:53 45.29697 -72.67095 28498 ft 455 kts 73°
2026-04-24 10:53 45.29854 -72.62591 29062 ft 458 kts 73°
2026-04-24 10:54 45.30025 -72.58062 29573 ft 460 kts 72°
2026-04-24 10:54 45.30245 -72.53520 30071 ft 461 kts 71°
2026-04-24 10:54 45.30504 -72.48970 30490 ft 463 kts 71°
2026-04-24 10:54 45.30782 -72.44398 30912 ft 466 kts 72°
2026-04-24 10:55 45.31062 -72.39799 31382 ft 467 kts 72°
2026-04-24 10:55 45.31329 -72.35203 31970 ft 466 kts 73°
2026-04-24 10:55 45.31582 -72.30613 32537 ft 466 kts 74°
2026-04-24 10:55 45.31825 -72.26033 33120 ft 465 kts 75°
2026-04-24 10:56 45.32058 -72.21456 33683 ft 464 kts 75°
2026-04-24 10:56 45.32288 -72.16881 34184 ft 464 kts 76°
2026-04-24 10:56 45.32520 -72.12321 34627 ft 463 kts 76°
2026-04-24 10:56 45.32756 -72.07759 35049 ft 463 kts 77°
2026-04-24 10:57 45.32993 -72.03199 35477 ft 463 kts 77°
2026-04-24 10:57 45.33230 -71.98638 35888 ft 463 kts 77°
2026-04-24 10:57 45.33463 -71.94082 36318 ft 462 kts 78°
2026-04-24 10:57 45.33690 -71.89527 36735 ft 462 kts 78°
2026-04-24 10:58 45.33934 -71.84984 37127 ft 460 kts 77°
2026-04-24 10:58 45.34300 -71.80480 37509 ft 457 kts 75°
2026-04-24 10:58 45.34774 -71.76025 37872 ft 455 kts 73°
2026-04-24 10:58 45.35315 -71.71599 38201 ft 454 kts 73°
2026-04-24 10:59 45.35875 -71.67182 38526 ft 454 kts 73°
2026-04-24 10:59 45.36418 -71.62758 38790 ft 454 kts 74°
2026-04-24 10:59 45.36930 -71.58322 38929 ft 455 kts 75°
2026-04-24 11:00 45.37885 -71.49397 38973 ft 457 kts 76°
2026-04-24 11:00 45.38805 -71.40459 38972 ft 457 kts 76°
2026-04-24 11:01 45.39737 -71.31526 38975 ft 457 kts 76°
2026-04-24 11:01 45.40675 -71.22590 38972 ft 457 kts 76°
2026-04-24 11:02 45.41604 -71.13715 38969 ft 456 kts 76°
2026-04-24 11:02 45.42525 -71.04772 38968 ft 457 kts 76°
2026-04-24 11:03 45.43254 -70.95762 38960 ft 460 kts 81°
2026-04-24 11:03 45.43625 -70.86654 38954 ft 461 kts 82°
2026-04-24 11:04 45.43939 -70.77531 38949 ft 461 kts 82°
2026-04-24 11:04 45.44319 -70.68426 38942 ft 461 kts 81°
2026-04-24 11:05 45.44879 -70.59360 38940 ft 458 kts 77°
2026-04-24 11:05 45.45839 -70.50417 38937 ft 456 kts 75°
2026-04-24 11:06 45.46864 -70.41491 38936 ft 457 kts 76°
2026-04-24 11:06 45.47789 -70.32538 38934 ft 457 kts 77°
2026-04-24 11:07 45.49073 -70.19071 38931 ft 457 kts 77°
2026-04-24 11:07 45.49937 -70.10096 38930 ft 457 kts 77°
2026-04-24 11:08 45.50804 -70.01121 38929 ft 457 kts 77°
2026-04-24 11:08 45.51655 -69.92146 38925 ft 457 kts 78°
2026-04-24 11:09 45.52496 -69.83172 38920 ft 457 kts 78°
2026-04-24 11:09 45.53342 -69.74194 38923 ft 457 kts 78°
2026-04-24 11:10 45.54179 -69.65217 38916 ft 457 kts 78°
2026-04-24 11:10 45.55002 -69.56297 38914 ft 457 kts 78°
2026-04-24 11:11 45.55818 -69.47314 38924 ft 457 kts 78°
2026-04-24 11:11 45.56626 -69.38328 38924 ft 456 kts 78°
2026-04-24 11:12 45.57430 -69.29341 38916 ft 457 kts 78°
2026-04-24 11:12 45.58230 -69.20349 38927 ft 457 kts 79°
2026-04-24 11:13 45.59022 -69.11355 38933 ft 456 kts 79°
2026-04-24 11:13 45.59803 -69.02367 38930 ft 456 kts 79°
2026-04-24 11:14 45.60573 -68.93370 38943 ft 456 kts 79°
2026-04-24 11:14 45.61339 -68.84374 38944 ft 456 kts 79°
2026-04-24 11:15 45.62103 -68.75392 38940 ft 455 kts 79°
2026-04-24 11:15 45.62858 -68.66422 38936 ft 455 kts 79°
2026-04-24 11:16 45.63598 -68.57453 38945 ft 454 kts 79°
2026-04-24 11:16 45.64332 -68.48554 38939 ft 454 kts 79°
2026-04-24 11:17 45.65069 -68.39598 38938 ft 454 kts 79°
2026-04-24 11:17 45.65794 -68.30646 38930 ft 454 kts 80°
2026-04-24 11:18 45.66504 -68.21691 38924 ft 453 kts 80°
2026-04-24 11:18 45.67207 -68.12737 38918 ft 453 kts 80°
2026-04-24 11:19 45.67909 -68.03787 38829 ft 453 kts 80°
2026-04-24 11:19 45.68259 -67.99323 38613 ft 451 kts 80°
2026-04-24 11:19 45.68605 -67.94863 38357 ft 451 kts 80°
2026-04-24 11:20 45.68948 -67.90407 38095 ft 451 kts 80°
2026-04-24 11:20 45.69287 -67.85954 37832 ft 450 kts 80°
2026-04-24 11:20 45.69633 -67.81503 37570 ft 449 kts 78°
2026-04-24 11:20 45.70303 -67.77166 37315 ft 445 kts 71°
2026-04-24 11:21 45.71114 -67.72894 37060 ft 445 kts 71°
2026-04-24 11:21 45.71921 -67.68623 36812 ft 445 kts 71°
2026-04-24 11:21 45.72722 -67.64353 36563 ft 444 kts 71°
2026-04-24 11:21 45.73517 -67.60077 36319 ft 444 kts 71°
2026-04-24 11:22 45.74307 -67.55806 36074 ft 444 kts 71°
2026-04-24 11:22 45.74830 -67.52980 35922 ft 444 kts 71°
2026-04-24 11:22 45.75621 -67.48713 35683 ft 443 kts 71°
2026-04-24 11:22 45.76414 -67.44445 35448 ft 443 kts 71°
2026-04-24 11:23 45.77203 -67.40184 35218 ft 443 kts 71°
2026-04-24 11:23 45.77990 -67.35922 34995 ft 443 kts 71°
2026-04-24 11:23 45.78773 -67.31657 34761 ft 442 kts 72°
2026-04-24 11:23 45.79554 -67.27392 34536 ft 442 kts 72°
2026-04-24 11:24 45.80329 -67.23131 34315 ft 442 kts 72°
2026-04-24 11:24 45.81101 -67.18869 34089 ft 442 kts 72°
2026-04-24 11:24 45.81874 -67.14604 33867 ft 442 kts 72°
2026-04-24 11:24 45.82649 -67.10344 33606 ft 442 kts 72°
2026-04-24 11:25 45.83424 -67.06087 33348 ft 441 kts 72°
2026-04-24 11:25 45.84197 -67.01826 33081 ft 442 kts 72°
2026-04-24 11:25 45.85215 -66.96180 32746 ft 442 kts 72°
2026-04-24 11:25 45.85734 -66.93295 32574 ft 442 kts 72°
2026-04-24 11:26 45.86502 -66.89031 32331 ft 442 kts 72°
2026-04-24 11:26 45.87268 -66.84768 32077 ft 442 kts 72°
2026-04-24 11:26 45.88032 -66.80497 31830 ft 442 kts 72°
2026-04-24 11:26 45.88782 -66.76289 31586 ft 440 kts 72°
2026-04-24 11:27 45.89545 -66.71984 31340 ft 438 kts 72°
2026-04-24 11:27 45.90284 -66.67813 31096 ft 436 kts 72°
2026-04-24 11:27 45.91028 -66.63608 30866 ft 434 kts 72°
2026-04-24 11:27 45.91771 -66.59419 30621 ft 432 kts 72°
2026-04-24 11:28 45.92511 -66.55247 30393 ft 430 kts 72°
2026-04-24 11:28 45.93243 -66.51100 30157 ft 428 kts 73°
2026-04-24 11:28 45.93966 -66.46968 29927 ft 426 kts 73°
2026-04-24 11:28 45.94591 -66.42815 29626 ft 425 kts 79°
2026-04-24 11:29 45.94973 -66.38612 29336 ft 423 kts 80°
2026-04-24 11:29 45.95355 -66.34428 29056 ft 421 kts 79°
2026-04-24 11:29 45.95738 -66.30267 28768 ft 419 kts 79°
2026-04-24 11:29 45.96121 -66.26133 28489 ft 417 kts 80°
2026-04-24 11:30 45.96503 -66.22017 28210 ft 414 kts 80°
2026-04-24 11:30 45.96879 -66.17923 27935 ft 411 kts 80°
2026-04-24 11:30 45.97245 -66.13885 27400 ft 404 kts 80°
2026-04-24 11:30 45.97602 -66.09917 26827 ft 396 kts 80°
2026-04-24 11:31 45.97948 -66.06029 26288 ft 388 kts 81°
2026-04-24 11:31 45.98285 -66.02223 25777 ft 380 kts 81°
2026-04-24 11:31 45.98493 -65.98465 25294 ft 380 kts 91°
2026-04-24 11:31 45.98061 -65.94664 24875 ft 389 kts 100°
2026-04-24 11:32 45.97485 -65.90857 24465 ft 389 kts 101°
2026-04-24 11:32 45.96908 -65.87064 24052 ft 387 kts 101°
2026-04-24 11:32 45.96340 -65.83296 23656 ft 384 kts 101°
2026-04-24 11:32 45.95781 -65.79554 23210 ft 382 kts 101°
2026-04-24 11:33 45.95228 -65.75839 22726 ft 379 kts 101°
2026-04-24 11:33 45.94677 -65.72150 22245 ft 376 kts 101°
2026-04-24 11:33 45.94129 -65.68492 21775 ft 373 kts 101°
2026-04-24 11:33 45.93584 -65.64858 21308 ft 371 kts 101°
2026-04-24 11:34 45.93048 -65.61296 20860 ft 368 kts 101°
2026-04-24 11:34 45.92501 -65.57720 20543 ft 364 kts 101°
2026-04-24 11:34 45.91935 -65.54211 20101 ft 358 kts 101°
2026-04-24 11:34 45.91373 -65.50743 19657 ft 356 kts 101°
2026-04-24 11:35 45.90817 -65.47289 19224 ft 354 kts 101°
2026-04-24 11:35 45.90269 -65.43853 18785 ft 352 kts 101°
2026-04-24 11:35 45.89728 -65.40431 18376 ft 351 kts 101°
2026-04-24 11:35 45.89194 -65.37028 17937 ft 349 kts 101°
2026-04-24 11:36 45.88667 -65.33640 17463 ft 347 kts 101°
2026-04-24 11:36 45.88147 -65.30268 16983 ft 345 kts 101°
2026-04-24 11:36 45.87636 -65.26913 16518 ft 343 kts 101°
2026-04-24 11:36 45.87133 -65.23577 16057 ft 341 kts 101°
2026-04-24 11:37 45.86638 -65.20254 15607 ft 340 kts 101°
2026-04-24 11:37 45.86151 -65.16945 15162 ft 338 kts 101°
2026-04-24 11:37 45.85672 -65.13650 14709 ft 337 kts 101°
2026-04-24 11:37 45.85203 -65.10367 14287 ft 335 kts 101°
2026-04-24 11:38 45.84743 -65.07099 13862 ft 334 kts 101°
2026-04-24 11:38 45.84293 -65.03840 13411 ft 332 kts 101°
2026-04-24 11:38 45.83849 -65.00597 12932 ft 331 kts 101°
2026-04-24 11:38 45.83408 -64.97367 12459 ft 329 kts 101°
2026-04-24 11:39 45.82973 -64.94159 11994 ft 327 kts 101°
2026-04-24 11:39 45.82542 -64.90979 11532 ft 322 kts 101°
2026-04-24 11:39 45.82263 -64.87833 11083 ft 315 kts 92°
2026-04-24 11:39 45.82181 -64.84722 10640 ft 309 kts 91°
2026-04-24 11:40 45.82125 -64.81663 10202 ft 304 kts 91°
2026-04-24 11:40 45.82072 -64.78682 9991 ft 293 kts 91°
2026-04-24 11:40 45.82020 -64.75785 9993 ft 291 kts 91°
2026-04-24 11:40 45.81969 -64.72887 9616 ft 289 kts 90°
2026-04-24 11:41 45.81915 -64.70020 9195 ft 286 kts 91°
2026-04-24 11:41 45.81861 -64.67182 8776 ft 284 kts 91°
2026-04-24 11:41 45.81804 -64.64369 8366 ft 281 kts 90°
2026-04-24 11:41 45.81744 -64.61588 7958 ft 278 kts 91°
2026-04-24 11:42 45.81682 -64.58864 7561 ft 276 kts 90°
2026-04-24 11:42 45.81615 -64.56094 7151 ft 273 kts 91°
2026-04-24 11:42 45.81547 -64.53387 6768 ft 270 kts 90°
2026-04-24 11:42 45.81474 -64.50708 6380 ft 268 kts 90°
2026-04-24 11:43 45.81431 -64.48049 5990 ft 265 kts 86°
2026-04-24 11:43 45.81681 -64.45496 5580 ft 261 kts 76°
2026-04-24 11:43 45.82097 -64.42973 5173 ft 259 kts 70°
2026-04-24 11:43 45.82967 -64.40743 4980 ft 251 kts 46°
2026-04-24 11:44 45.84322 -64.39277 4854 ft 247 kts 23°
2026-04-24 11:44 45.85972 -64.38727 4720 ft 244 kts 359°
2026-04-24 11:44 45.87664 -64.38864 4585 ft 244 kts 355°
2026-04-24 11:44 45.89354 -64.39031 4450 ft 243 kts 355°
2026-04-24 11:45 45.91016 -64.39193 4313 ft 233 kts 355°
2026-04-24 11:45 45.92593 -64.39342 4178 ft 221 kts 355°
2026-04-24 11:45 45.94098 -64.39484 4041 ft 214 kts 355°
2026-04-24 11:45 45.95575 -64.39624 3905 ft 212 kts 356°
2026-04-24 11:46 45.97020 -64.39759 3772 ft 204 kts 355°
2026-04-24 11:46 45.98410 -64.39891 3640 ft 197 kts 355°
2026-04-24 11:46 45.99753 -64.40020 3506 ft 190 kts 355°
2026-04-24 11:46 46.01058 -64.40146 3375 ft 186 kts 356°
2026-04-24 11:47 46.02324 -64.40268 3256 ft 180 kts 356°
2026-04-24 11:47 46.03567 -64.40386 3128 ft 178 kts 356°
2026-04-24 11:47 46.04806 -64.40506 3050 ft 178 kts 356°
2026-04-24 11:47 46.06041 -64.40624 3003 ft 177 kts 356°
2026-04-24 11:48 46.07273 -64.40740 3006 ft 178 kts 356°
2026-04-24 11:48 46.08506 -64.40857 3005 ft 178 kts 356°
2026-04-24 11:48 46.09722 -64.41142 3009 ft 178 kts 340°
2026-04-24 11:48 46.10732 -64.42126 3003 ft 175 kts 313°
2026-04-24 11:49 46.11313 -64.43638 3005 ft 173 kts 287°
2026-04-24 11:49 46.11393 -64.45366 3007 ft 174 kts 269°
2026-04-24 11:49 46.11341 -64.47104 2932 ft 173 kts 269°
2026-04-24 11:49 46.11291 -64.48785 2759 ft 162 kts 270°
2026-04-24 11:50 46.11245 -64.50368 2552 ft 156 kts 270°
2026-04-24 11:50 46.11201 -64.51889 2354 ft 147 kts 270°
2026-04-24 11:50 46.11160 -64.53337 2137 ft 143 kts 270°
2026-04-24 11:50 46.11119 -64.54755 1926 ft 141 kts 270°
2026-04-24 11:51 46.11079 -64.56136 1728 ft 134 kts 270°
2026-04-24 11:51 46.11041 -64.57437 1550 ft 128 kts 270°
2026-04-24 11:51 46.11004 -64.58697 1371 ft 125 kts 270°
2026-04-24 11:51 46.10968 -64.59942 1182 ft 124 kts 270°
2026-04-24 11:52 46.10931 -64.61175 994 ft 123 kts 270°
2026-04-24 11:52 46.10895 -64.62397 811 ft 121 kts 270°
2026-04-24 11:52 46.10859 -64.63594 644 ft 118 kts 271°
2026-04-24 11:52 46.10824 -64.64774 482 ft 117 kts 271°
2026-04-24 11:53 46.10790 -64.65917 329 ft 114 kts 269°
2026-04-24 11:53 46.10757 -64.67065 237 ft 109 kts 270°
2026-04-24 11:53 46.10735 -64.67917 232 ft 45 kts 268°
2026-04-24 11:53 46.10723 -64.68271 231 ft 31 kts 268°
2026-04-24 11:54 46.10743 -64.68452 231 ft 15 kts 320°
2026-04-24 11:54 46.10839 -64.68467 231 ft 13 kts 359°
2026-04-24 11:54 46.10935 -64.68472 229 ft 18 kts 357°
2026-04-24 11:54 46.11065 -64.68481 227 ft 20 kts 358°
2026-04-24 11:55 46.11206 -64.68493 226 ft 16 kts 356°
2026-04-24 11:55 46.11307 -64.68522 227 ft 15 kts 329°
2026-04-24 11:55 46.11379 -64.68629 226 ft 14 kts 312°
2026-04-24 11:55 46.11442 -64.68727 225 ft 12 kts 323°
2026-04-24 11:56 46.11505 -64.68702 225 ft 8 kts 29°
2026-04-24 11:56 46.11533 -64.68725 225 ft 3 kts 310°
2026-04-24 11:56 46.11546 -64.68747 225 ft 4 kts 313°
2026-04-24 11:56 46.11560 -64.68768 226 ft 2 kts 313°
2026-04-24 11:57 46.11561 -64.68770 226 ft 0 kts 313°